Change the Weather History Date:

Tuesday, December 20, 2011

  Actual Average Record
Temperature  
Mean Temperature 52 °F -  
Max Temperature 59 °F 54 °F 66 °F (2006)
Min Temperature 46 °F 41 °F 28 °F (2001)
Degree Days  
Heating Degree Days 12    
Growing Degree Days 2 (Base 50)    
Moisture  
Dew Point 43 °F    
Average Humidity 76    
Maximum Humidity 100    
Minimum Humidity 48    
Precipitation  
Precipitation 0.00 in - - ()
Sea Level Pressure  
Sea Level Pressure 29.82 in    
Wind  
Wind Speed 4 mph ()    
Max Wind Speed 14 mph    
Max Gust Speed 20 mph    
Visibility 6.2 miles    
Events Rain    
Averages and records for this station are not official NWS values.
T = Trace of Precipitation, MM = Missing Value Source: Averaged Metar Reports

Daily Weather History Graph

Daily Weather History Graph

Search for Another Location

Airport or City:

Trip Planner

Search our weather history database for the weather conditions in past years. The results will help you decide how hot, cold, wet, or windy it might be!

Date:

Astronomy

Dec. 20, 2011 Rise Set
Actual Time 7:37 AM EET 5:08 PM EET
Civil Twilight 7:07 AM EET 5:38 PM EET
Nautical Twilight 6:34 AM EET 6:11 PM EET
Astronomical Twilight 6:02 AM EET 6:43 PM EET
Moon 2:38 AM EET (12/20) 1:30 PM EET (12/20)
Length of Visible Light 10h 30m
Length of Day
9h 31m
Waning Crescent, 24% of the Moon is Illuminated
Dec 20
Waning Crescent
Dec 24
New
Jan 1
First Quarter
Jan 9
Full
Jan 16
Last Quarter

Hourly Weather History & Observations

Time (EET) Temp. Windchill Dew Point Humidity Pressure Visibility Wind Dir Wind Speed Gust Speed Precip Events Conditions
12:20 AM 51.8 °F - 51.8 °F 100% 29.86 in 6.2 mi Calm Calm - N/A   Mostly Cloudy
12:50 AM 51.8 °F - 51.8 °F 100% 29.86 in 6.2 mi Calm Calm - N/A   Mostly Cloudy
1:20 AM 50.0 °F - 50.0 °F 100% 29.86 in 6.2 mi Calm Calm - N/A   Scattered Clouds
1:50 AM 50.0 °F - 50.0 °F 100% 29.83 in 6.2 mi Variable 2.3 mph - N/A   Scattered Clouds
2:20 AM 48.2 °F - 48.2 °F 100% 29.83 in 6.2 mi Variable 3.5 mph - N/A   Scattered Clouds
2:50 AM 48.2 °F - 48.2 °F 100% 29.83 in 6.2 mi Variable 3.5 mph - N/A   Scattered Clouds
3:20 AM 48.2 °F - 48.2 °F 100% 29.83 in 6.2 mi Variable 2.3 mph - N/A   Scattered Clouds
3:50 AM 48.2 °F - 48.2 °F 100% 29.83 in 6.2 mi Variable 3.5 mph - N/A   Mostly Cloudy
4:20 AM 48.2 °F - 48.2 °F 100% 29.83 in 6.2 mi Variable 2.3 mph - N/A   Mostly Cloudy
4:50 AM 48.2 °F - 48.2 °F 100% 29.83 in 6.2 mi Variable 2.3 mph - N/A   Scattered Clouds
5:20 AM 48.2 °F - 48.2 °F 100% 29.83 in 6.2 mi Variable 3.5 mph - N/A   Scattered Clouds
5:50 AM 46.4 °F - 46.4 °F 100% 29.80 in 6.2 mi Calm Calm - N/A   Scattered Clouds
6:20 AM 46.4 °F - 46.4 °F 100% 29.80 in 6.2 mi Calm Calm - N/A   Partly Cloudy
6:50 AM 46.4 °F 45.2 °F 46.4 °F 100% 29.83 in 6.2 mi Variable 3.5 mph - N/A   Partly Cloudy
7:20 AM 46.4 °F 45.2 °F 46.4 °F 100% 29.83 in 6.2 mi Variable 3.5 mph - N/A   Scattered Clouds
7:50 AM 46.4 °F 45.2 °F 46.4 °F 100% 29.83 in 6.2 mi North 3.5 mph - N/A   Scattered Clouds
8:20 AM 48.2 °F - 48.2 °F 100% 29.83 in 6.2 mi Calm Calm - N/A   Scattered Clouds
8:50 AM 50.0 °F - 50.0 °F 100% 29.80 in 6.2 mi Calm Calm - N/A   Scattered Clouds
9:20 AM 51.8 °F - 50.0 °F 94% 29.80 in 6.2 mi Calm Calm - N/A   Partly Cloudy
9:50 AM 51.8 °F - 51.8 °F 100% 29.80 in 6.2 mi Calm Calm - N/A   Partly Cloudy
10:20 AM 53.6 °F - 51.8 °F 94% 29.80 in 6.2 mi Calm Calm - N/A   Partly Cloudy
10:50 AM 57.2 °F - 48.2 °F 72% 29.80 in 6.2 mi SSE 4.6 mph - N/A   Partly Cloudy
11:20 AM 57.2 °F - 44.6 °F 63% 29.80 in 6.2 mi Variable 3.5 mph - N/A   Partly Cloudy
11:50 AM 59.0 °F - 44.6 °F 59% 29.80 in 6.2 mi SSW 5.8 mph - N/A   Scattered Clouds
12:20 PM 59.0 °F - 41.0 °F 51% 29.80 in 6.2 mi SSW 10.4 mph - N/A   Scattered Clouds
12:50 PM 57.2 °F - 39.2 °F 51% 29.77 in 6.2 mi SSW 9.2 mph - N/A   Scattered Clouds
1:20 PM 57.2 °F - 39.2 °F 51% 29.77 in 6.2 mi SW 9.2 mph - N/A Rain Light Rain
1:50 PM 57.2 °F - 41.0 °F 55% 29.77 in 6.2 mi SW 5.8 mph - N/A   Mostly Cloudy
2:20 PM 59.0 °F - 41.0 °F 51% 29.77 in 6.2 mi SW 8.1 mph - N/A   Mostly Cloudy
2:50 PM 57.2 °F - 39.2 °F 51% 29.77 in 6.2 mi WSW 9.2 mph - N/A   Mostly Cloudy
3:20 PM 57.2 °F - 37.4 °F 48% 29.77 in 6.2 mi West 11.5 mph - N/A   Scattered Clouds
3:50 PM 55.4 °F - 39.2 °F 54% 29.77 in 6.2 mi NW 13.8 mph - N/A   Scattered Clouds
4:20 PM 53.6 °F - 39.2 °F 58% 29.77 in 6.2 mi WNW 13.8 mph - N/A   Partly Cloudy
4:50 PM 53.6 °F - 37.4 °F 54% 29.80 in 6.2 mi West 6.9 mph - N/A   Partly Cloudy
5:20 PM 51.8 °F - 37.4 °F 58% 29.80 in 6.2 mi WSW 5.8 mph - N/A   Partly Cloudy
5:50 PM 50.0 °F - 39.2 °F 66% 29.83 in 6.2 mi WNW 11.5 mph - N/A   Scattered Clouds
6:20 PM 50.0 °F - 39.2 °F 66% 29.83 in 6.2 mi West 5.8 mph - N/A   Scattered Clouds
6:50 PM 50.0 °F - 37.4 °F 62% 29.83 in 6.2 mi West 12.7 mph - N/A   Partly Cloudy
7:20 PM 50.0 °F - 37.4 °F 62% 29.83 in 6.2 mi West 12.7 mph - N/A   Partly Cloudy
7:50 PM 50.0 °F - 39.2 °F 66% 29.86 in 6.2 mi WSW 8.1 mph 19.6 mph N/A   Scattered Clouds
8:20 PM 50.0 °F - 39.2 °F 66% 29.86 in 6.2 mi WSW 11.5 mph - N/A   Scattered Clouds
8:50 PM 50.0 °F - 35.6 °F 58% 29.89 in 6.2 mi West 11.5 mph - N/A   Partly Cloudy
9:20 PM 50.0 °F - 35.6 °F 58% 29.89 in 6.2 mi West 9.2 mph - N/A   Partly Cloudy
9:50 PM 48.2 °F - 33.8 °F 58% 29.89 in 6.2 mi West 4.6 mph - N/A   Partly Cloudy
10:20 PM 48.2 °F - 33.8 °F 58% 29.89 in 6.2 mi West 9.2 mph - N/A   Partly Cloudy
10:50 PM 48.2 °F - 33.8 °F 58% 29.89 in 6.2 mi WSW 8.1 mph - N/A   Scattered Clouds
11:20 PM 48.2 °F - 33.8 °F 58% 29.89 in 6.2 mi SW 9.2 mph - N/A   Mostly Cloudy
11:50 PM 48.2 °F - 35.6 °F 62% 29.92 in 6.2 mi West 9.2 mph - N/A   Scattered Clouds